Regional Weather Roundup
Issued by NWS

Home | Current Version | Previous Version | Graphics & Text | Print | Product List | Glossary On
Versions: 1 2 3 4 5 6 7 8 9 10 11 12 13 14 15 16 17 18 19 20 21 22 23 24 25 26 27 28 29 30 31 32 33 34 35 36 37 38 39 40 41 42 43 44 45 46 47 48 49 50
000
ASUS45 KCYS 192310
RWRWY

WYOMING REGIONAL WEATHER ROUNDUP
NATIONAL WEATHER SERVICE CHEYENNE WY
500 PM MDT SUN OCT 19 2014

NOTE:  "FAIR" INDICATES FEW OR NO CLOUDS BELOW 12,000 FEET
WITH NO SIGNIFICANT WEATHER AND/OR OBSTRUCTIONS TO VISIBILITY.

WYZ001-200000-
YELLOWSTONE NATIONAL PARK

CITY           SKY/WX    TMP DP  RH WIND       PRES   REMARKS
LK YELLOWSTONE   N/A     58  16  19 VRB5      30.22S
W YELLOWSTONE  NOT AVBL

$$
WYZ002>013-054>058-071-098>099-200000-
NORTHERN WYOMING

CITY           SKY/WX    TMP DP  RH WIND       PRES   REMARKS
JACKSON        SUNNY     66  25  20 CALM      30.13F
CODY           SUNNY    N/A N/A N/A E14       30.03S
GREYBULL       SUNNY     74  29  19 S5        29.99F
WORLAND        SUNNY     75  31  19 SE6       30.00F
SHERIDAN       SUNNY     73  31  21 VRB3      30.02S
BUFFALO        SUNNY     70  31  23 E5        30.07F
GILLETTE       SUNNY     70  37  29 SE9       30.05S
HULETT         FAIR      70  36  28 N3        30.08
NEWCASTLE      FAIR      70  32  24 N3        30.07

$$
WYZ014>020-022>026-101>103-200000-
CENTRAL WYOMING

CITY           SKY/WX    TMP DP  RH WIND       PRES   REMARKS
BIG PINEY      SUNNY     65  18  16 S6        30.18S
PINEDALE       CLEAR     63  18  17 CALM      30.19S
DUBOIS         FAIR      61  25  25 SE9       30.15S
LANDER         SUNNY     68  31  25 CALM      30.07F
RIVERTON       SUNNY     67  30  25 E5        30.08F
CASPER         SUNNY     70  29  21 SW9       30.08F
DOUGLAS        NOT AVBL

$$
WYZ021-027>030-104>119-200000-
SOUTHERN WYOMING

CITY           SKY/WX    TMP DP  RH WIND       PRES   REMARKS
EVANSTON       SUNNY     66  27  23 N5        30.16F
KEMMERER       CLEAR     63  25  23 CALM      30.18F
FORT BRIDGER   FAIR      66  28  24 E6        30.20S
ROCK SPRINGS   SUNNY     65  28  24 N6        30.15F
DIXON          FAIR      68  32  26 W3        30.17F
RAWLINS        SUNNY     67  25  20 W10       30.16F
SARATOGA       FAIR      64  28  25 N6        30.18S
LARAMIE        SUNNY     64  27  24 N6        30.19S
CHEYENNE       SUNNY     67  31  26 E8        30.14S
TORRINGTON     SUNNY     72  33  24 S7        30.06S
PINE BLUFFS    FAIR      70  32  24 E5        30.11S

$$


USA.gov is the U.S. government's official web portal to all federal, state and local government web resources and services.